• Em Portugal
  • Lista de países
  • Para 7 dias
  • Temperatura da água
  • Mapas de satélite
  • Mapa do tempo
  • Widgets de tempo
  • user-avatar
    Iniciar Sessão

    Previsão horária em Semnan

    Hoje, 23 Novembro, Quinta-feira

    Tempo Temperatura Precipitação Vento Pressão Humidade
    00:00 +12°C° 0 mm 1 m/s 674 mmHg 46%
    01:00 +12°C° 0 mm 1 m/s 674 mmHg 47%
    02:00 +12°C° 0 mm 1 m/s 674 mmHg 49%
    03:00 +12°C° 0 mm 1 m/s 674 mmHg 51%
    04:00 +11°C° 0 mm 1 m/s 674 mmHg 53%
    05:00 +11°C° 0 mm 1 m/s 674 mmHg 54%
    06:00 +11°C° 0 mm 1 m/s 674 mmHg 55%
    07:00 +10°C° 0 mm 1 m/s 674 mmHg 56%
    08:00 +12°C° 0 mm 1 m/s 674 mmHg 51%
    09:00 +14°C° 0 mm 1 m/s 675 mmHg 45%
    10:00 +15°C° 0 mm 1 m/s 675 mmHg 40%
    11:00 +16°C° 0 mm 1 m/s 675 mmHg 37%
    12:00 +17°C° 0 mm 2 m/s 675 mmHg 33%
    13:00 +18°C° 0 mm 3 m/s 675 mmHg 30%
    14:00 +18°C° 0 mm 3 m/s 675 mmHg 30%
    15:00 +18°C° 0 mm 4 m/s 675 mmHg 29%
    16:00 +18°C° 0 mm 4 m/s 675 mmHg 29%
    17:00 +16°C° 0 mm 3 m/s 675 mmHg 32%
    18:00 +14°C° 0 mm 3 m/s 675 mmHg 36%
    19:00 +14°C° 0 mm 2 m/s 675 mmHg 39%
    20:00 +13°C° 0 mm 2 m/s 675 mmHg 40%
    21:00 +13°C° 0 mm 2 m/s 675 mmHg 40%
    22:00 +12°C° 0 mm 2 m/s 675 mmHg 41%
    23:00 +12°C° 0 mm 2 m/s 675 mmHg 42%

    Amanhã, 24 Novembro, Sexta-feira

    Tempo Temperatura Precipitação Vento Pressão Humidade
    00:00 +12°C° 0 mm 2 m/s 675 mmHg 43%
    01:00 +10°C° 0 mm 2 m/s 675 mmHg 43%
    02:00 +10°C° 0 mm 2 m/s 675 mmHg 44%
    03:00 +9°C° 0 mm 2 m/s 675 mmHg 45%
    04:00 +9°C° 0 mm 2 m/s 675 mmHg 46%
    05:00 +9°C° 0 mm 2 m/s 676 mmHg 47%
    06:00 +9°C° 0 mm 1 m/s 676 mmHg 47%
    07:00 +9°C° 0 mm 1 m/s 676 mmHg 48%
    08:00 +9°C° 0 mm 2 m/s 676 mmHg 42%
    09:00 +12°C° 0 mm 2 m/s 677 mmHg 37%
    10:00 +12°C° 0 mm 3 m/s 678 mmHg 32%
    11:00 +13°C° 0 mm 4 m/s 678 mmHg 29%
    12:00 +14°C° 0 mm 4 m/s 678 mmHg 25%
    13:00 +14°C° 0 mm 5 m/s 678 mmHg 22%
    14:00 +14°C° 0 mm 6 m/s 678 mmHg 22%
    15:00 +14°C° 0 mm 6 m/s 678 mmHg 23%
    16:00 +12°C° 0 mm 7 m/s 678 mmHg 23%
    17:00 +11°C° 0 mm 6 m/s 678 mmHg 28%
    18:00 +10°C° 0 mm 5 m/s 678 mmHg 32%
    19:00 +10°C° 0 mm 3 m/s 678 mmHg 37%
    20:00 +9°C° 0 mm 3 m/s 678 mmHg 40%
    21:00 +9°C° 0 mm 3 m/s 678 mmHg 42%
    22:00 +8°C° 0 mm 3 m/s 678 mmHg 45%
    23:00 +8°C° 0 mm 3 m/s 678 mmHg 44%

    Depois de amanhã, 25 Novembro, Sábado

    Tempo Temperatura Precipitação Vento Pressão Humidade
    00:00 +7°C° 0 mm 4 m/s 679 mmHg 44%
    01:00 +6°C° 0 mm 4 m/s 679 mmHg 44%
    02:00 +6°C° 0 mm 4 m/s 679 mmHg 44%
    03:00 +6°C° 0 mm 4 m/s 679 mmHg 45%
    04:00 +5°C° 0 mm 4 m/s 679 mmHg 46%
    05:00 +5°C° 0 mm 3 m/s 679 mmHg 46%
    06:00 +5°C° 0 mm 3 m/s 680 mmHg 47%
    07:00 +4°C° 0 mm 3 m/s 680 mmHg 48%
    08:00 +6°C° 0 mm 4 m/s 681 mmHg 42%
    09:00 +7°C° 0 mm 4 m/s 681 mmHg 37%
    10:00 +8°C° 0 mm 5 m/s 682 mmHg 31%
    11:00 +9°C° 0 mm 5 m/s 682 mmHg 29%
    12:00 +10°C° 0 mm 5 m/s 682 mmHg 27%
    13:00 +10°C° 0 mm 5 m/s 682 mmHg 25%
    14:00 +10°C° 0 mm 5 m/s 682 mmHg 26%
    15:00 +10°C° 0 mm 5 m/s 682 mmHg 27%
    16:00 +10°C° 0 mm 5 m/s 682 mmHg 28%
    17:00 +10°C° 0 mm 4 m/s 682 mmHg 31%
    18:00 +9°C° 0 mm 3 m/s 683 mmHg 35%
    19:00 +8°C° 0 mm 2 m/s 683 mmHg 39%
    20:00 +8°C° 0 mm 2 m/s 683 mmHg 41%
    21:00 +8°C° 0 mm 2 m/s 684 mmHg 43%
    22:00 +7°C° 0 mm 2 m/s 684 mmHg 45%
    23:00 +7°C° 0 mm 2 m/s 684 mmHg 47%

    26 Novembro, Domingo

    Tempo Temperatura Precipitação Vento Pressão Humidade
    00:00 +6°C° 0 mm 2 m/s 685 mmHg 49%
    01:00 +6°C° 0 mm 2 m/s 685 mmHg 52%
    02:00 +6°C° 0 mm 2 m/s 685 mmHg 53%
    03:00 +6°C° 0 mm 2 m/s 685 mmHg 54%
    04:00 +5°C° 0 mm 2 m/s 685 mmHg 55%
    05:00 +5°C° 0 mm 2 m/s 685 mmHg 55%
    06:00 +5°C° 0 mm 2 m/s 686 mmHg 56%
    07:00 +5°C° 0 mm 2 m/s 686 mmHg 56%
    08:00 +6°C° 0 mm 2 m/s 686 mmHg 52%
    09:00 +7°C° 0 mm 2 m/s 686 mmHg 48%
    10:00 +8°C° 0 mm 3 m/s 687 mmHg 44%
    11:00 +9°C° 0 mm 3 m/s 686 mmHg 42%
    12:00 +9°C° 0 mm 3 m/s 686 mmHg 40%
    13:00 +10°C° 0 mm 3 m/s 685 mmHg 38%
    14:00 +10°C° 0 mm 3 m/s 685 mmHg 38%
    15:00 +10°C° 0 mm 3 m/s 685 mmHg 37%
    16:00 +10°C° 0 mm 3 m/s 684 mmHg 37%
    17:00 +9°C° 0 mm 2 m/s 684 mmHg 39%
    18:00 +9°C° 0 mm 2 m/s 684 mmHg 42%
    19:00 +9°C° 0 mm 1 m/s 684 mmHg 44%
    20:00 +9°C° 0 mm 1 m/s 684 mmHg 44%
    21:00 +8°C° 0 mm 1 m/s 684 mmHg 45%
    22:00 +8°C° 0 mm 1 m/s 684 mmHg 46%
    23:00 +8°C° 0 mm 1 m/s 684 mmHg 45%

    27 Novembro, Segunda-feira

    Tempo Temperatura Precipitação Vento Pressão Humidade
    00:00 +8°C° 0 mm 1 m/s 684 mmHg 45%
    01:00 +8°C° 0 mm 1 m/s 683 mmHg 45%
    02:00 +7°C° 0 mm 1 m/s 683 mmHg 46%
    03:00 +7°C° 0 mm 1 m/s 683 mmHg 47%
    04:00 +7°C° 0 mm 1 m/s 682 mmHg 47%
    05:00 +6°C° 0 mm 1 m/s 682 mmHg 48%
    06:00 +6°C° 0 mm 1 m/s 682 mmHg 48%
    07:00 +6°C° 0 mm 1 m/s 682 mmHg 48%
    08:00 +7°C° 0 mm 1 m/s 683 mmHg 45%
    09:00 +9°C° 0 mm 1 m/s 683 mmHg 41%
    10:00 +10°C° 0 mm 1 m/s 683 mmHg 37%
    11:00 +11°C° 0 mm 1 m/s 683 mmHg 35%
    12:00 +12°C° 0 mm 1 m/s 682 mmHg 34%
    13:00 +13°C° 0 mm 1 m/s 682 mmHg 32%
    14:00 +13°C° 0 mm 1 m/s 682 mmHg 32%
    15:00 +13°C° 0 mm 1 m/s 681 mmHg 31%
    16:00 +14°C° 0 mm 1 m/s 681 mmHg 31%
    17:00 +12°C° 0 mm 1 m/s 681 mmHg 34%
    18:00 +11°C° 0 mm 1 m/s 681 mmHg 36%
    19:00 +10°C° 0 mm 1 m/s 681 mmHg 39%
    20:00 +10°C° 0 mm 1 m/s 681 mmHg 39%
    21:00 +10°C° 0 mm 1 m/s 680 mmHg 39%
    22:00 +9°C° 0 mm 1 m/s 680 mmHg 40%
    23:00 +9°C° 0 mm 1 m/s 680 mmHg 40%

    28 Novembro, Terça-feira

    Tempo Temperatura Precipitação Vento Pressão Humidade
    00:00 +9°C° 0 mm 1 m/s 680 mmHg 41%
    01:00 +9°C° 0 mm 1 m/s 680 mmHg 42%
    02:00 +8°C° 0 mm 1 m/s 679 mmHg 43%
    03:00 +8°C° 0 mm 1 m/s 679 mmHg 43%
    04:00 +8°C° 0 mm 1 m/s 679 mmHg 44%
    05:00 +7°C° 0 mm 1 m/s 679 mmHg 46%
    06:00 +7°C° 0 mm 1 m/s 679 mmHg 47%
    07:00 +6°C° 0 mm 0 m/s 679 mmHg 49%
    08:00 +8°C° 0 mm 1 m/s 680 mmHg 44%
    09:00 +10°C° 0 mm 1 m/s 680 mmHg 40%
    10:00 +12°C° 0 mm 1 m/s 681 mmHg 35%
    11:00 +12°C° 0 mm 1 m/s 680 mmHg 33%
    12:00 +13°C° 0 mm 1 m/s 680 mmHg 31%
    13:00 +14°C° 0 mm 2 m/s 680 mmHg 30%
    14:00 +14°C° 0 mm 2 m/s 680 mmHg 30%
    15:00 +14°C° 0 mm 2 m/s 680 mmHg 30%
    16:00 +15°C° 0 mm 2 m/s 679 mmHg 30%
    17:00 +13°C° 0 mm 1 m/s 679 mmHg 33%
    18:00 +12°C° 0 mm 1 m/s 679 mmHg 36%
    19:00 +10°C° 0 mm 0 m/s 679 mmHg 39%
    20:00 +9°C° 0 mm 0 m/s 679 mmHg 40%
    21:00 +10°C° 0 mm 1 m/s 679 mmHg 40%
    22:00 +10°C° 0 mm 1 m/s 679 mmHg 41%
    23:00 +9°C° 0 mm 1 m/s 679 mmHg 42%
    Mostrar mais